When you browse on this site, cookies collect data to enhance your experience and personalize the content and advertising you see.
Visit our Privacy Policy to learn more. By continuing to use the site, you agree to this use of cookies and data.
  • In Slovakia
  • List of Countries
  • For 7 days
  • Water Temperature
  • Satellite Maps
  • Weather Map
  • Weather Widgets
  • user-avatar
    Login

    Hourly Weather Laszkar Gah

    Today, 20 July, Saturday

    Time Temperature Precipitation Wind Pressure Humidity
    00:00 +31°C° 0 mm 1 mps 683 mmHg 7%
    01:00 +31°C° 0 mm 1 mps 683 mmHg 7%
    02:00 +30°C° 0 mm 2 mps 684 mmHg 9%
    03:00 +30°C° 0 mm 2 mps 684 mmHg 11%
    04:00 +29°C° 0 mm 3 mps 684 mmHg 18%
    05:00 +30°C° 0 mm 3 mps 685 mmHg 24%
    06:00 +32°C° 0 mm 4 mps 686 mmHg 29%
    07:00 +34°C° 0 mm 4 mps 687 mmHg 35%
    08:00 +36°C° 0 mm 4 mps 687 mmHg 30%
    09:00 +38°C° 0 mm 4 mps 687 mmHg 25%
    10:00 +42°C° 0 mm 3 mps 688 mmHg 21%
    11:00 +43°C° 0 mm 3 mps 687 mmHg 18%
    12:00 +45°C° 0 mm 2 mps 687 mmHg 14%
    13:00 +47°C° 0 mm 2 mps 687 mmHg 11%
    14:00 +47°C° 0 mm 2 mps 686 mmHg 9%
    15:00 +48°C° 0 mm 3 mps 686 mmHg 8%
    16:00 +48°C° 0 mm 3 mps 685 mmHg 7%
    17:00 +46°C° 0 mm 3 mps 685 mmHg 7%
    18:00 +44°C° 0 mm 3 mps 684 mmHg 7%
    19:00 +40°C° 0 mm 3 mps 684 mmHg 8%
    20:00 +39°C° 0 mm 3 mps 684 mmHg 8%
    21:00 +38°C° 0 mm 2 mps 684 mmHg 8%
    22:00 +37°C° 0 mm 2 mps 684 mmHg 9%
    23:00 +35°C° 0 mm 3 mps 684 mmHg 14%

    Tomorrow, 21 July, Sunday

    Time Temperature Precipitation Wind Pressure Humidity
    00:00 +34°C° 0 mm 3 mps 685 mmHg 20%
    01:00 +33°C° 0 mm 4 mps 685 mmHg 26%
    02:00 +32°C° 0 mm 4 mps 685 mmHg 29%
    03:00 +30°C° 0 mm 4 mps 685 mmHg 32%
    04:00 +29°C° 0 mm 4 mps 685 mmHg 35%
    05:00 +32°C° 0 mm 4 mps 686 mmHg 34%
    06:00 +33°C° 0 mm 4 mps 687 mmHg 34%
    07:00 +34°C° 0 mm 5 mps 687 mmHg 33%
    08:00 +37°C° 0 mm 4 mps 687 mmHg 29%
    09:00 +40°C° 0 mm 4 mps 688 mmHg 24%
    10:00 +42°C° 0 mm 3 mps 688 mmHg 19%
    11:00 +44°C° 0 mm 3 mps 688 mmHg 17%
    12:00 +45°C° 0 mm 2 mps 687 mmHg 14%
    13:00 +45°C° 0 mm 1 mps 687 mmHg 12%
    14:00 +46°C° 0 mm 1 mps 686 mmHg 11%
    15:00 +46°C° 0 mm 1 mps 686 mmHg 10%
    16:00 +47°C° 0 mm 1 mps 685 mmHg 8%
    17:00 +46°C° 0 mm 2 mps 685 mmHg 9%
    18:00 +42°C° 0 mm 2 mps 684 mmHg 10%
    19:00 +40°C° 0 mm 3 mps 684 mmHg 11%
    20:00 +39°C° 0 mm 3 mps 684 mmHg 11%
    21:00 +38°C° 0 mm 3 mps 685 mmHg 11%
    22:00 +37°C° 0 mm 3 mps 685 mmHg 10%
    23:00 +36°C° 0 mm 3 mps 685 mmHg 16%

    Day after tomorrow, 22 July, Monday

    Time Temperature Precipitation Wind Pressure Humidity
    00:00 +35°C° 0 mm 4 mps 685 mmHg 22%
    01:00 +34°C° 0 mm 5 mps 685 mmHg 27%
    02:00 +33°C° 0 mm 4 mps 685 mmHg 30%
    03:00 +30°C° 0 mm 3 mps 685 mmHg 34%
    04:00 +29°C° 0 mm 2 mps 685 mmHg 37%
    05:00 +31°C° 0 mm 3 mps 685 mmHg 35%
    06:00 +33°C° 0 mm 5 mps 686 mmHg 33%
    07:00 +35°C° 0 mm 6 mps 686 mmHg 32%
    08:00 +38°C° 0 mm 6 mps 687 mmHg 27%
    09:00 +41°C° 0 mm 6 mps 687 mmHg 21%
    10:00 +44°C° 0 mm 6 mps 687 mmHg 16%
    11:00 +45°C° 0 mm 5 mps 687 mmHg 14%
    12:00 +47°C° 0 mm 4 mps 686 mmHg 12%
    13:00 +47°C° 0 mm 3 mps 686 mmHg 10%
    14:00 +47°C° 0 mm 2 mps 685 mmHg 9%
    15:00 +47°C° 0 mm 1 mps 685 mmHg 8%
    16:00 +47°C° 0 mm 1 mps 684 mmHg 7%
    17:00 +46°C° 0 mm 2 mps 684 mmHg 7%
    18:00 +43°C° 0 mm 2 mps 683 mmHg 8%
    19:00 +42°C° 0 mm 3 mps 683 mmHg 9%
    20:00 +39°C° 0 mm 3 mps 683 mmHg 9%
    21:00 +38°C° 0 mm 3 mps 683 mmHg 10%
    22:00 +36°C° 0 mm 3 mps 683 mmHg 10%
    23:00 +35°C° 0 mm 2 mps 683 mmHg 11%

    23 July, Tuesday

    Time Temperature Precipitation Wind Pressure Humidity
    00:00 +32°C° 0 mm 2 mps 683 mmHg 12%
    01:00 +31°C° 0 mm 1 mps 683 mmHg 12%
    02:00 +31°C° 0 mm 1 mps 683 mmHg 14%
    03:00 +31°C° 0 mm 2 mps 683 mmHg 15%
    04:00 +30°C° 0 mm 2 mps 683 mmHg 17%
    05:00 +33°C° 0 mm 3 mps 684 mmHg 17%
    06:00 +34°C° 0 mm 3 mps 685 mmHg 16%
    07:00 +36°C° 0 mm 4 mps 686 mmHg 16%
    08:00 +38°C° 0 mm 4 mps 686 mmHg 14%
    09:00 +41°C° 0 mm 4 mps 686 mmHg 12%
    10:00 +43°C° 0 mm 4 mps 686 mmHg 11%
    11:00 +44°C° 0 mm 4 mps 686 mmHg 9%
    12:00 +47°C° 0 mm 4 mps 686 mmHg 8%
    13:00 +49°C° 0 mm 4 mps 686 mmHg 7%
    14:00 +49°C° 0 mm 4 mps 685 mmHg 6%
    15:00 +48°C° 0 mm 3 mps 685 mmHg 6%
    16:00 +50°C° 0 mm 3 mps 684 mmHg 6%
    17:00 +47°C° 0 mm 4 mps 684 mmHg 6%
    18:00 +44°C° 0 mm 4 mps 684 mmHg 7%
    19:00 +42°C° 0 mm 4 mps 684 mmHg 8%
    20:00 +40°C° 0 mm 4 mps 684 mmHg 8%
    21:00 +38°C° 0 mm 4 mps 684 mmHg 9%
    22:00 +36°C° 0 mm 3 mps 684 mmHg 9%
    23:00 +35°C° 0 mm 3 mps 683 mmHg 11%

    24 July, Wednesday

    Time Temperature Precipitation Wind Pressure Humidity
    00:00 +32°C° 0 mm 2 mps 683 mmHg 12%
    01:00 +31°C° 0 mm 1 mps 683 mmHg 13%
    02:00 +31°C° 0 mm 2 mps 683 mmHg 13%
    03:00 +31°C° 0 mm 3 mps 683 mmHg 14%
    04:00 +32°C° 0 mm 4 mps 683 mmHg 14%
    05:00 +32°C° 0 mm 4 mps 684 mmHg 13%
    06:00 +33°C° 0 mm 4 mps 684 mmHg 11%
    07:00 +34°C° 0 mm 4 mps 685 mmHg 10%
    08:00 +36°C° 0 mm 4 mps 685 mmHg 9%
    09:00 +40°C° 0 mm 4 mps 686 mmHg 8%
    10:00 +42°C° 0 mm 4 mps 686 mmHg 7%
    11:00 +44°C° 0 mm 4 mps 686 mmHg 7%
    12:00 +45°C° 0 mm 4 mps 685 mmHg 6%
    13:00 +48°C° 0 mm 4 mps 685 mmHg 5%
    14:00 +49°C° 0 mm 5 mps 684 mmHg 5%
    15:00 +49°C° 0 mm 5 mps 684 mmHg 5%
    16:00 +49°C° 0 mm 5 mps 683 mmHg 5%
    17:00 +47°C° 0 mm 5 mps 683 mmHg 6%
    18:00 +43°C° 0 mm 4 mps 683 mmHg 7%
    19:00 +41°C° 0 mm 4 mps 682 mmHg 7%
    20:00 +38°C° 0 mm 3 mps 682 mmHg 8%
    21:00 +37°C° 0 mm 3 mps 682 mmHg 9%
    22:00 +35°C° 0 mm 3 mps 682 mmHg 9%
    23:00 +34°C° 0 mm 2 mps 682 mmHg 10%

    25 July, Thursday

    Time Temperature Precipitation Wind Pressure Humidity
    00:00 +32°C° 0 mm 2 mps 682 mmHg 11%
    01:00 +31°C° 0 mm 2 mps 682 mmHg 11%
    02:00 +30°C° 0 mm 2 mps 682 mmHg 12%
    03:00 +30°C° 0 mm 2 mps 682 mmHg 13%
    04:00 +29°C° 0 mm 2 mps 682 mmHg 14%
    05:00 +31°C° 0 mm 2 mps 682 mmHg 13%
    06:00 +33°C° 0 mm 3 mps 683 mmHg 13%
    07:00 +35°C° 0 mm 3 mps 684 mmHg 12%
    08:00 +37°C° 0 mm 3 mps 684 mmHg 11%
    09:00 +39°C° 0 mm 3 mps 684 mmHg 11%
    10:00 +41°C° 0 mm 2 mps 685 mmHg 10%
    11:00 +43°C° 0 mm 2 mps 684 mmHg 8%
    12:00 +45°C° 0 mm 2 mps 684 mmHg 7%
    13:00 +47°C° 0 mm 2 mps 684 mmHg 6%
    14:00 +47°C° 0 mm 2 mps 683 mmHg 6%
    15:00 +48°C° 0 mm 2 mps 683 mmHg 6%
    16:00 +48°C° 0 mm 2 mps 682 mmHg 5%
    17:00 +46°C° 0 mm 2 mps 682 mmHg 6%
    18:00 +43°C° 0 mm 3 mps 681 mmHg 7%
    19:00 +40°C° 0 mm 3 mps 681 mmHg 8%
    20:00 +39°C° 0 mm 3 mps 681 mmHg 9%
    21:00 +37°C° 0 mm 3 mps 681 mmHg 9%
    22:00 +36°C° 0 mm 3 mps 681 mmHg 10%
    23:00 +35°C° 0 mm 3 mps 681 mmHg 11%
    Show more